Theta_e
321 322 324 328 330 326 327 327 323 325 327 326 333 333 336 343 345 350 341 341 342 341 343 340 337 330 333 337 337 336 336 336 337 337 335 334 332 331 328 327 329 329 329 331 329 329 331 328 327
320 322 326 330 327 328 325 323 323 324 325 325 325 325 330 343 339 337 337 341 342 339 343 341 338 336 328 335 336 337 335 335 337 336 335 333 332 330 330 327 326 327 328 329 329 328 329 327 324
318 322 328 332 330 326 324 326 326 324 323 323 324 324 336 336 332 333 337 341 341 339 343 342 340 339 334 328 334 335 334 334 336 336 335 334 333 331 329 329 328 328 328 328 328 327 328 325 324
320 326 327 329 333 328 327 324 324 325 324 324 324 333 330 317 320 323 332 339 341 339 340 342 340 338 338 332 327 334 334 333 335 336 335 334 333 331 329 327 327 327 328 328 328 327 328 323 324
322 327 330 332 331 329 323 321 325 325 324 325 325 329 325 312 308 309 319 333 340 340 340 341 340 338 338 336 329 325 333 332 334 335 334 333 332 330 328 327 327 327 328 328 328 326 326 323 322
326 327 331 332 330 328 321 318 324 322 322 321 323 323 320 310 306 306 310 323 334 339 340 339 339 339 338 336 334 328 326 332 333 334 334 333 331 329 328 326 326 328 328 327 327 326 326 323 320
327 330 331 330 329 328 320 316 319 319 318 320 319 319 321 307 304 304 307 311 326 332 338 339 338 338 338 337 336 331 322 328 333 334 335 333 331 329 327 326 325 325 327 326 325 326 325 322 319
326 328 329 327 327 326 316 314 316 316 316 315 318 319 311 303 302 303 304 308 311 320 332 334 338 339 338 336 336 333 324 322 332 334 335 333 331 328 327 326 325 325 326 325 324 325 323 320 317
325 327 325 324 323 318 310 311 311 308 310 304 305 303 302 301 301 301 302 304 305 308 309 314 333 336 338 338 337 333 329 325 330 333 336 333 331 329 327 325 325 326 324 325 325 325 322 317 313
323 322 319 311 307 305 305 302 301 301 301 303 301 301 301 301 301 301 301 301 302 304 305 308 325 333 334 338 337 336 334 323 331 334 335 333 332 330 329 326 325 325 325 325 325 325 323 318 313
313 317 314 305 302 301 301 301 301 300 302 300 298 299 300 302 303 302 302 301 301 303 304 304 306 316 331 334 336 335 333 331 327 336 336 335 333 331 330 328 326 325 325 324 324 324 323 320 315
309 305 305 303 299 301 300 301 301 302 302 300 299 300 301 301 303 303 304 304 304 305 306 306 306 307 316 326 334 335 334 332 332 333 336 335 333 332 331 329 327 326 325 325 325 323 322 320 316
304 301 300 300 300 300 301 302 301 301 300 300 300 301 301 302 302 303 303 304 305 306 309 311 314 317 321 325 324 331 333 334 331 334 335 335 333 332 331 329 328 328 327 324 324 323 322 321 318
303 302 300 300 300 301 300 301 301 301 300 300 301 301 300 301 301 302 302 303 303 303 303 307 311 312 312 317 323 324 332 334 333 330 333 334 334 333 332 330 329 328 327 325 325 322 322 320 319
301 302 302 300 300 301 300 304 301 301 301 300 300 301 301 301 302 301 301 301 302 302 302 302 306 310 311 310 308 313 318 329 333 332 329 331 333 334 332 331 330 329 328 326 324 323 321 320 319
302 302 305 301 300 301 301 306 301 302 301 299 300 300 301 300 301 301 301 300 300 300 301 301 301 302 302 301 302 303 308 319 331 331 331 331 331 333 333 331 330 330 329 327 324 322 322 321 320
304 303 302 303 300 300 300 301 303 303 301 299 299 299 300 299 300 301 301 301 300 300 299 299 299 300 301 301 300 300 301 311 316 313 312 326 330 331 332 332 331 330 329 327 325 322 322 321 321
301 301 301 302 301 300 299 299 300 301 301 299 299 299 299 299 299 300 301 300 300 300 299 299 299 299 300 300 300 300 300 300 304 307 309 308 310 324 331 331 331 330 329 328 324 322 322 322 321
299 300 301 301 300 297 299 300 300 301 300 298 300 299 299 298 300 301 301 301 300 299 298 299 298 298 298 299 300 301 302 300 302 303 305 307 307 308 316 331 331 330 329 328 325 322 321 321 321
301 300 300 300 300 298 298 299 299 300 300 300 300 298 299 299 298 300 300 300 300 299 299 298 298 298 298 298 299 300 300 300 299 301 302 304 306 306 307 308 312 329 330 328 325 322 321 321 321
302 301 298 298 298 299 298 299 303 301 300 300 300 299 300 299 298 297 299 300 299 299 299 298 298 298 298 298 298 299 301 300 299 301 301 301 302 304 306 308 309 309 329 328 325 323 322 321 322
301 298 298 298 298 300 300 298 304 300 299 299 300 300 300 299 298 298 299 299 299 299 299 298 298 298 298 298 297 297 298 300 299 300 300 300 300 304 306 307 309 309 315 328 326 324 322 321 321
301 297 298 298 297 298 300 298 301 301 301 299 299 301 300 299 298 297 298 299 299 298 298 298 298 298 298 297 297 297 297 298 298 299 300 300 300 302 304 306 309 310 310 321 327 324 322 321 321
298 298 300 298 297 302 301 299 299 300 301 301 301 301 300 298 297 296 299 299 299 298 298 298 298 298 297 297 296 296 296 297 297 298 300 301 300 301 304 305 307 309 308 310 327 325 322 322 321
298 302 310 308 306 313 297 298 298 302 301 300 300 299 298 297 296 296 296 298 298 298 298 297 297 297 297 297 296 295 295 296 297 297 298 300 302 302 302 305 306 307 309 310 311 324 323 322 321
298 298 303 304 307 304 297 299 300 302 302 300 299 298 298 297 296 296 296 298 298 297 297 296 297 297 297 297 296 295 295 295 296 297 298 299 300 302 303 304 306 306 308 311 312 318 323 322 322
297 302 297 299 297 299 299 301 301 302 300 299 299 299 297 296 296 296 297 298 297 297 296 296 296 296 296 297 296 296 296 296 295 296 298 299 301 303 302 303 306 308 310 310 312 313 324 323 322
296 297 301 300 301 301 305 304 303 301 301 301 299 297 297 297 297 296 296 297 297 296 296 295 295 295 296 295 295 295 295 295 295 296 298 300 300 301 302 304 305 306 309 310 313 314 314 324 323
295 296 296 296 299 303 304 302 302 302 301 300 298 296 297 297 296 295 295 296 296 296 295 295 295 295 295 294 294 294 294 294 295 296 298 298 300 300 301 302 303 304 310 311 314 313 313 324 324
295 298 298 299 299 297 299 299 300 301 300 298 296 297 297 297 295 294 294 296 296 295 295 294 295 294 293 292 291 292 294 294 295 296 296 296 296 297 298 300 303 305 310 310 314 312 313 320 324
Wind_Speed
18 15 14 7 2 3 2 5 4 4 6 8 5 3 3 16 14 5 9 16 10 3 11 15 16 15 16 15 14 14 13 12 13 12 11 11 11 11 11 12 10 10 8 8 6 5 5 6 7
18 15 8 4 3 3 5 7 9 8 5 5 7 8 7 8 14 6 16 18 10 1 11 11 17 15 15 16 15 15 14 13 14 12 12 12 11 10 10 11 10 10 9 9 6 5 6 6 6
18 11 3 3 3 5 5 11 13 9 2 3 6 6 5 10 14 10 23 17 10 1 6 11 10 15 15 16 17 16 15 15 15 14 13 12 11 11 11 11 11 10 10 11 9 7 6 7 7
9 4 3 2 5 11 11 12 9 9 8 11 8 5 9 27 15 20 24 18 11 4 5 12 9 13 17 17 18 18 17 17 17 17 14 12 12 13 12 14 10 11 11 11 11 8 6 6 8
6 4 3 3 5 5 15 9 8 9 11 13 11 11 8 19 26 31 27 24 18 9 6 9 10 12 17 19 19 20 20 19 19 19 17 15 14 14 15 13 13 12 11 11 12 10 8 8 7
3 1 3 5 4 9 10 11 6 9 10 12 8 11 6 19 33 34 32 23 21 18 9 10 11 14 17 21 20 20 23 21 23 21 21 19 16 16 16 15 14 13 11 11 12 12 11 10 9
3 4 6 8 9 4 6 9 8 7 9 8 9 8 3 27 32 32 29 28 18 17 16 11 12 14 17 22 22 21 21 25 25 23 22 21 18 18 18 17 16 14 12 12 13 13 14 13 11
3 4 7 7 4 5 5 8 8 9 6 11 8 6 7 23 32 29 27 24 26 19 16 16 14 16 18 24 25 23 23 25 26 25 25 24 20 18 18 19 18 17 15 15 15 16 16 14 13
2 2 4 5 6 5 12 9 8 8 6 10 11 12 18 28 29 29 26 24 26 26 23 24 18 17 20 20 22 22 25 26 27 27 28 26 22 20 20 20 20 19 19 17 18 18 17 16 15
3 2 5 7 9 6 9 9 9 6 8 7 14 21 28 28 26 22 23 23 24 27 28 25 21 22 20 23 24 25 24 27 29 29 31 29 25 23 20 22 21 20 23 19 19 20 19 17 17
7 5 6 8 7 6 8 9 7 8 6 7 10 11 15 19 20 19 20 22 24 25 24 28 27 24 25 24 23 24 27 26 31 31 34 34 30 27 25 22 23 23 23 24 24 22 21 21 19
5 7 8 5 4 4 6 8 7 5 5 8 7 9 11 9 14 18 20 23 26 27 25 24 26 28 27 25 28 26 23 27 28 34 34 34 32 32 29 29 24 26 26 27 27 24 24 22 19
7 4 7 2 6 2 9 8 3 3 6 7 7 7 7 8 16 19 22 24 27 28 26 29 29 28 28 24 26 30 30 27 31 29 33 36 35 33 35 30 29 27 25 26 26 25 23 22 20
4 7 4 3 7 2 7 6 6 3 6 7 6 6 7 7 12 15 17 20 22 25 30 28 24 26 31 27 22 26 27 35 25 31 33 35 36 35 35 35 35 29 28 27 27 25 25 22 22
2 1 4 5 5 4 7 5 8 4 3 6 6 5 5 8 11 11 16 18 19 22 25 28 26 26 29 35 35 31 31 29 37 29 32 33 36 35 35 38 37 37 32 28 28 25 25 24 22
1 2 3 3 6 3 6 1 5 3 3 7 7 5 4 6 11 8 11 15 17 19 22 26 25 25 27 31 33 34 32 31 28 29 35 36 39 37 37 35 37 38 37 31 31 28 27 26 24
4 2 5 4 4 2 5 7 7 2 1 6 7 7 6 7 9 11 12 12 16 18 20 23 27 26 26 33 34 33 34 28 24 29 33 22 38 41 39 37 36 38 36 32 35 32 31 28 26
1 3 4 6 2 3 9 18 17 10 6 7 6 6 6 7 7 13 14 16 18 22 21 24 27 26 27 31 34 35 30 33 33 37 36 39 43 32 42 40 39 36 36 34 35 33 34 32 29
4 4 8 5 6 6 6 13 13 8 6 7 4 6 6 7 10 13 14 16 20 22 24 26 26 27 27 30 31 27 25 34 30 31 33 33 37 46 32 40 39 40 39 38 37 36 33 33 30
2 7 6 8 3 7 9 20 18 11 7 6 5 7 7 6 6 11 14 15 18 22 23 27 28 26 26 27 30 27 28 28 30 30 32 32 31 39 39 42 34 38 41 40 42 37 32 30 36
1 3 5 6 11 11 9 8 2 5 8 4 6 9 5 6 7 7 14 19 19 21 24 25 28 31 29 28 27 29 27 23 24 24 27 26 30 33 32 34 35 53 43 40 43 40 37 31 32
2 5 6 9 7 4 3 5 4 7 8 7 9 6 4 6 7 6 12 16 20 23 24 25 27 29 30 30 30 26 27 23 27 25 26 28 26 28 27 33 32 39 31 43 44 43 41 36 31
3 6 6 4 6 7 4 1 7 7 6 9 8 4 5 5 5 7 13 16 22 23 24 26 28 30 30 29 29 30 27 28 29 29 28 27 26 26 30 27 31 37 38 39 44 43 44 44 36
7 6 5 3 3 1 3 1 6 5 5 2 3 3 3 6 6 9 14 20 22 25 27 25 28 28 30 29 29 29 31 31 27 27 30 28 28 27 27 25 29 36 40 43 43 49 47 46 39
4 3 2 4 2 4 6 3 11 7 4 3 2 4 8 7 8 8 8 15 21 24 26 25 26 29 30 31 30 27 28 30 30 28 28 30 28 26 30 29 27 29 35 36 48 44 49 49 43
3 3 2 4 3 4 5 6 6 4 1 6 6 6 7 7 8 9 10 15 22 25 26 28 28 27 29 31 30 28 29 29 30 28 31 30 30 32 32 32 29 32 41 33 41 36 46 46 44
1 2 1 2 2 2 5 7 9 2 4 3 5 3 8 9 9 9 12 19 22 24 28 27 26 29 34 28 28 29 32 31 29 30 32 32 31 29 32 31 32 31 34 39 40 31 35 43 44
2 1 1 1 3 5 6 6 10 6 7 4 3 7 9 7 8 8 10 19 24 26 26 26 29 32 29 30 27 29 31 31 31 31 31 31 33 31 32 30 34 35 34 42 34 26 25 40 42
2 2 1 1 2 3 4 6 4 2 2 3 5 9 9 8 8 8 10 20 23 24 26 26 29 29 28 30 31 31 31 31 31 30 29 29 29 29 32 32 33 35 34 35 34 27 28 36 38
3 2 6 4 4 3 1 9 7 0 2 5 9 9 8 7 8 8 12 19 21 24 24 27 26 27 24 27 32 32 29 30 29 26 26 28 30 31 31 34 30 32 33 36 30 31 30 29 46
Wind_Direction
345 343 318 287 256 217 216 91 26 9 37 346 67 337 321 37 1 63 44 5 354 330 187 189 194 192 188 191 198 199 201 190 184 182 177 174 170 169 168 184 163 152 150 135 153 165 131 127 128
338 347 293 269 260 250 65 58 49 19 78 334 320 356 350 69 17 61 12 354 344 320 193 183 198 203 202 196 204 207 206 202 192 191 191 187 187 184 183 181 187 191 169 161 160 165 129 150 152
328 291 282 322 295 32 97 44 26 347 188 359 357 311 41 344 38 6 357 355 352 183 208 183 219 213 214 212 208 214 213 206 203 201 198 202 199 196 193 182 181 173 174 182 178 160 137 140 147
316 209 240 250 318 55 53 39 4 335 350 29 27 71 86 36 24 2 357 355 353 324 228 207 213 222 224 222 220 216 219 218 217 207 210 210 207 205 199 198 203 183 183 184 185 179 169 160 157
246 261 259 267 288 79 76 37 348 12 356 29 12 356 90 42 17 1 359 356 352 330 262 242 229 242 231 225 223 224 223 225 222 218 218 223 214 210 209 211 203 194 191 190 190 188 198 187 177
275 248 281 264 334 108 64 15 11 17 341 36 11 337 77 28 15 355 351 349 346 341 317 263 261 260 242 232 225 229 229 228 226 225 221 221 224 217 212 210 215 204 202 200 197 196 209 204 195
254 279 269 313 303 23 54 347 37 357 342 15 336 325 307 11 359 351 344 340 339 333 318 301 266 264 245 243 235 231 230 227 231 228 222 223 224 221 219 213 217 216 214 209 206 206 215 212 208
320 243 277 274 310 84 54 353 14 17 335 314 354 358 352 349 345 343 342 339 341 347 338 314 299 273 255 240 239 241 235 224 229 233 223 224 229 226 222 222 220 219 219 221 218 221 225 218 217
284 265 247 30 10 30 17 359 4 354 308 341 23 17 351 346 343 342 342 342 340 340 345 337 312 292 258 243 246 244 243 233 229 229 229 219 225 225 225 228 222 224 222 229 223 233 234 225 224
353 231 60 29 34 6 342 355 359 351 324 10 359 349 353 348 348 346 344 337 335 334 329 331 330 311 297 260 240 246 244 238 233 229 224 221 223 224 228 229 228 227 225 225 228 239 242 233 233
15 43 120 42 35 344 3 2 311 353 16 26 343 342 341 349 354 351 347 336 330 331 329 329 333 326 310 294 268 247 240 239 238 232 225 220 220 229 219 224 227 227 227 228 233 242 244 240 239
111 45 23 36 28 11 356 303 318 340 18 4 332 338 352 344 355 353 354 356 348 339 331 331 330 327 316 302 287 270 244 229 231 235 226 222 215 225 219 215 221 227 227 230 233 239 240 241 240
61 91 74 52 42 352 340 321 333 323 22 339 344 351 1 6 359 4 5 358 356 352 359 350 348 350 351 325 308 291 270 245 227 227 232 223 216 216 216 216 211 225 230 227 232 229 234 233 237
32 59 53 32 28 43 351 302 304 104 23 329 347 358 359 1 358 5 5 1 3 0 355 346 340 338 342 344 341 336 293 266 245 229 228 229 221 216 213 216 215 213 224 223 228 222 225 227 225
207 278 196 84 355 42 324 266 214 78 357 323 336 344 360 338 347 8 356 357 358 352 351 358 358 342 333 329 328 329 318 303 247 236 235 229 227 219 216 214 214 213 215 217 218 222 220 223 225
221 343 319 91 3 49 359 168 145 123 356 326 318 327 338 318 335 349 346 347 351 350 347 342 343 349 344 342 341 331 317 339 269 250 243 237 230 226 219 217 216 217 213 209 215 216 218 220 220
45 329 16 326 98 318 42 282 218 11 250 309 311 320 320 313 324 331 328 332 335 337 335 334 333 336 333 334 336 338 332 314 321 336 351 286 235 226 221 221 221 216 210 207 212 209 213 215 217
46 345 340 301 39 8 288 268 265 269 212 255 292 301 310 325 313 330 327 332 327 328 329 327 326 324 327 324 328 327 332 332 316 310 318 328 328 279 226 225 220 214 209 209 202 203 208 209 212
28 318 280 315 24 349 285 288 275 266 209 238 284 312 315 315 328 335 331 334 331 330 330 327 325 322 324 322 321 320 321 328 323 319 310 314 320 317 326 222 217 219 210 209 204 201 198 203 204
301 291 333 301 78 336 284 287 273 241 229 203 253 286 294 310 325 327 329 330 330 325 329 324 319 320 318 314 311 303 307 311 316 321 320 314 311 307 318 317 316 235 212 205 200 198 200 201 197
311 309 6 294 314 266 289 271 215 192 189 166 239 251 279 310 329 319 331 330 331 329 324 319 318 318 315 310 307 305 299 302 307 308 312 321 323 308 310 310 314 318 216 209 205 200 201 195 194
315 47 332 308 327 298 39 284 240 175 196 217 232 231 297 303 307 313 322 321 328 325 322 319 314 312 314 311 306 304 301 294 296 295 297 301 310 303 307 295 306 302 302 212 210 204 204 198 193
228 13 284 307 291 315 199 283 262 123 201 233 207 176 251 292 305 321 297 320 318 316 318 316 314 312 312 313 309 306 301 294 291 289 286 287 299 305 296 304 293 299 296 269 205 204 205 204 196
292 285 204 215 229 328 124 49 277 187 200 153 181 211 319 307 312 287 298 322 314 318 318 318 316 314 313 310 305 304 300 299 293 289 285 284 286 290 290 284 292 298 315 318 216 204 201 203 200
302 318 318 349 5 236 116 323 250 283 205 188 268 311 283 291 284 305 321 313 316 319 319 317 315 312 313 310 303 301 299 299 294 292 284 282 277 273 278 286 288 290 295 290 289 222 201 201 198
6 26 125 260 300 310 142 235 255 177 334 240 220 259 278 308 323 310 304 319 316 319 319 315 317 315 319 313 309 306 303 295 293 287 288 278 276 273 273 284 287 289 290 292 291 283 199 198 199
20 64 60 307 137 349 241 273 286 304 199 165 202 329 315 298 293 308 313 317 319 320 316 317 327 325 320 313 313 311 307 300 294 294 291 282 278 278 277 276 278 278 270 283 274 285 218 196 195
336 51 113 326 357 290 284 277 248 240 248 177 20 317 288 301 325 320 317 324 320 317 322 329 327 320 316 316 314 310 306 301 297 293 290 287 283 281 281 279 274 277 270 266 270 266 295 208 192
156 167 61 83 162 227 301 254 219 282 351 297 294 276 293 326 330 325 316 316 322 327 327 328 324 319 323 320 320 313 306 305 297 293 290 291 292 293 289 284 279 282 267 268 267 284 286 213 192
352 226 173 143 234 242 283 267 266 236 201 245 265 282 309 325 317 312 317 329 331 332 332 329 324 321 322 330 320 313 309 308 301 298 300 299 295 295 288 283 282 284 275 277 273 281 275 253 200